User: anonymous   Login
Location: Bangkok
(13.7500°N, 100.5170°E)
Time: 14:57:00
(UTC+07:00)
Language:

ERBS - Orbit

View from above orbital plane
View from above orbital plane
View from above satellite
View from above satellite

Ground track
Ground track

The orbit data is extracted from the following two-line orbital elements,

1 15354U 84108B   17017.64804582  .00001958  00000-0  53315-4 0  9996
2 15354  57.0088  66.0175 0012823 153.1624 207.0096 15.42601384774962
Epoch (UTC): 17 January 2017 15:33:11
Eccentricity: 0.0012823
inclination: 57.0088°
perigee height: 430 km
apogee height: 447 km
right ascension of ascending node: 66.0175°
argument of perigee: 153.1624°
revolutions per day: 15.42601384
mean anomaly at epoch: 207.0096°
orbit number at epoch: 77496

The dashed part of the orbit path shows where the satellite is in the earth's shadow,  

DLR